World > North America > United States > Iowa   City of Cresco, IA

Cresco, Iowa Regional Weather

Lat: 43.37N, Lon: 92.12W
Wx Zone: IAZ009
Warning NWS WEATHER ALERT - WINTER WEATHER ADVISORY (More Info. Click Here) Warning
Feedback

Cresco, IA Regional Weather

Expires:202002180500;;705535
ASUS43 KDMX 180406
RWRIA 

WEATHER ROUNDUP FOR IOWA
NATIONAL WEATHER SERVICE DES MOINES IA
1000 PM CST MON FEB 17 2020

NOTE: "FAIR" INDICATES FEW OR NO CLOUDS BELOW 12,000 FEET WITH NO
SIGNIFICANT WEATHER AND/OR OBSTRUCTIONS TO VISIBILITY.

* - THESE STATIONS ARE NOT NWS STATIONS...THUS NOT UNDER NWS
QUALITY CONTROL.  THEY ALSO DO NOT REPORT WEATHER SUCH 
AS PRECIPITATION OR FOG.  


IAZ007>011-017>019-026>030-037>042-050>054-066-180500-
   NORTHEAST IOWA
  
CITY           SKY/WX    TMP DP  RH WIND       PRES   REMARKS
CEDAR RAPIDS   FOG       32  32 100 W9        29.83R VSB 1/2 WCI  24  
CHARLES CITY * LGT SNOW  32  32 100 NW15      29.86R WCI  22          
CLINTON *      FOG       35  34  96 SW8       29.82R VSB 1/4 WCI  29  
DECORAH *      SNOW      32  32 100 NW7       29.81R VSB 1/2 WCI  26  
DUBUQUE        FOG       33  33 100 SW7       29.78S VSB 1/4 WCI  27  
MONTICELLO *   FOG       34  34 100 W7        29.81R VSB 1   WCI  28  
OELWEIN *      CLOUDY    32  32 100 NW10      29.82S FOG     WCI  24  
WATERLOO       CLOUDY    34  32  92 NW12G21   29.84R FOG     WCI  25  
$$
 

SKY/WX - Weather  TMP - Temperature  DP - Dew Point  RH - Relative Humidity
WIND - Wind Direction/Speed PRES - Barometric Pressure VSB - Visibility
WCI - Wind Chill Index E13G22 Wind - East Wind 13 mph/Gusts of 22 mph
Iowa Weather Map
What is UTC time?